Whiteman AFB, MO

3:11 PM CST on December 10, 2019 (GMT -0600)
Whiteman Air Force Base

Weather History for KSZL - October, 2019

Change the Weather History Date:

Friday, October 18, 2019

  Actual Average Record
Temperature  
Mean Temperature 58 °F -  
Max Temperature 71 °F 64 °F 82 °F (2005)
Min Temperature 46 °F 45 °F 33 °F (1999)
Degree Days  
Heating Degree Days 6    
Growing Degree Days 8 (Base 50)    
Moisture  
Dew Point 48 °F    
Average Humidity 75    
Maximum Humidity 100    
Minimum Humidity 38    
Precipitation  
Precipitation 0.00 in - - ()
Sea Level Pressure  
Sea Level Pressure 29.80 in    
Wind  
Wind Speed 9 mph (SSE)    
Max Wind Speed 15 mph    
Max Gust Speed 23 mph    
Visibility 10 miles    
Events      
Averages and records for this station are not official NWS values.
T = Trace of Precipitation, MM = Missing Value Source: NWS Daily Summary

Daily Weather History Graph

Daily Weather History Graph

Search for Another Location

Airport or City:

Astronomy

Oct. 18, 2019 Rise Set
Actual Time 7:26 AM CDT 6:31 PM CDT
Civil Twilight 6:59 AM CDT 6:58 PM CDT
Nautical Twilight 6:28 AM CDT 7:29 PM CDT
Astronomical Twilight 5:57 AM CDT 8:00 PM CDT
Moon 9:51 PM CDT (10/18) 11:57 AM CDT (10/18)
Length of Visible Light 11h 59m
Length of Day
11h 05m
Waning Gibbous, 78% of the Moon is Illuminated
Oct 18
Waning Gibbous
Oct 21
Last Quarter
Oct 27
New
Nov 4
First Quarter
Nov 12
Full

Hourly Weather History & Observations

Time (CDT) Temp. Windchill Dew Point Humidity Pressure Visibility Wind Dir Wind Speed Gust Speed Precip Events Conditions
12:56 AM 51.1 °F - 49.6 °F 95% 29.88 in 10.0 mi SSE 6.9 mph - N/A   Scattered Clouds
1:56 AM 50.4 °F - 50.0 °F 99% 29.88 in 10.0 mi SSE 8.1 mph - N/A   Scattered Clouds
2:56 AM 49.3 °F - 49.3 °F 100% 29.88 in 10.0 mi SSE 6.9 mph - N/A   Scattered Clouds
3:56 AM 48.9 °F - 48.9 °F 100% 29.88 in 10.0 mi South 6.9 mph - N/A   Partly Cloudy
4:56 AM 47.8 °F - 47.8 °F 100% 29.88 in 10.0 mi South 8.1 mph - N/A   Partly Cloudy
5:56 AM 47.5 °F - 47.5 °F 100% 29.88 in 10.0 mi South 6.9 mph - N/A   Partly Cloudy
6:56 AM 46.4 °F 42.9 °F 46.4 °F 100% 29.88 in 10.0 mi South 6.9 mph - N/A   Partly Cloudy
7:56 AM 48.6 °F - 48.6 °F 100% 29.88 in 10.0 mi SSE 6.9 mph - N/A   Partly Cloudy
8:56 AM 51.8 °F - 51.8 °F 100% 29.88 in 10.0 mi South 11.5 mph - N/A   Mostly Cloudy
9:56 AM 55.9 °F - 51.8 °F 86% 29.88 in 10.0 mi South 10.4 mph - N/A   Mostly Cloudy
10:56 AM 61.0 °F - 51.8 °F 72% 29.87 in 10.0 mi South 13.8 mph - N/A   Mostly Cloudy
11:56 AM 64.0 °F - 48.0 °F 56% 29.84 in 10.0 mi South 15.0 mph - N/A   Mostly Cloudy
2:56 PM 71.2 °F - 45.7 °F 40% 29.74 in 10.0 mi SSE 9.2 mph - N/A   Partly Cloudy
3:56 PM 71.4 °F - 44.4 °F 38% 29.71 in 10.0 mi SSE 15.0 mph 17.3 mph N/A   Clear
4:56 PM 70.0 °F - 44.6 °F 40% 29.71 in 10.0 mi SSE 15.0 mph 23.0 mph N/A   Clear
5:56 PM 67.5 °F - 45.3 °F 45% 29.70 in 10.0 mi SSE 9.2 mph 20.7 mph N/A   Clear
6:56 PM 63.9 °F - 45.9 °F 52% 29.70 in 10.0 mi SSE 12.7 mph 19.6 mph N/A   Clear
7:56 PM 59.9 °F - 46.0 °F 60% 29.71 in 10.0 mi SSE 9.2 mph - N/A   Clear
8:56 PM 58.5 °F - 45.9 °F 63% 29.72 in 10.0 mi SSE 9.2 mph - N/A   Clear
9:56 PM 58.6 °F - 45.7 °F 62% 29.70 in 10.0 mi SSE 15.0 mph 20.7 mph N/A   Clear
10:56 PM 57.6 °F - 45.9 °F 65% 29.70 in 10.0 mi South 11.5 mph 19.6 mph N/A   Partly Cloudy
11:56 PM 56.3 °F - 46.2 °F 69% 29.70 in 10.0 mi SSE 10.4 mph - N/A   Partly Cloudy